Regional Weather Roundup
Issued by NWS Northern Indiana

Home | Current Version | Previous Version | Graphics & Text | Print | Product List | Glossary On
Versions: 1 2 3 4 5 6 7 8 9 10 11 12 13 14 15 16 17 18 19 20 21 22 23 24 25 26 27 28 29 30 31 32 33 34 35 36 37 38 39 40 41 42 43 44 45 46 47 48 49 50
000
ASUS43 KIWX 171400
RWRIWX

KIWX WEATHER ROUNDUP
NATIONAL WEATHER SERVICE NORTHERN INDIANA
1000 AM EDT THU APR 17 2014

NOTE: "FAIR" INDICATES FEW OR NO CLOUDS BELOW 12,000 FEET WITH NO
SIGNIFICANT WEATHER AND/OR OBSTRUCTIONS TO VISIBILITY.

* THESE STATIONS ARE NOT UNDER NWS QUALITY CONTROL. THEY ALSO MAY NOT
  REPORT WEATHER SUCH AS PRECIPITATION OR FOG.

INZ001>027-171500-
NORTHERN INDIANA

CITY           SKY/WX    TMP DP  RH WIND       PRES   REMARKS
GARY*          MOSUNNY   48  27  43 S12G23    30.18S
VALPARAISO     MOSUNNY   48  26  42 S15       30.21S
SOUTH BEND     MOSUNNY   50  26  39 S13       30.23S
ELKHART*       SUNNY     46  25  42 S8G17     30.24S
GOSHEN         MOSUNNY   49  27  42 S12       30.24F
ANGOLA*        SUNNY     41  27  56 S9        30.27F
FORT WAYNE     PTSUNNY   48  29  47 S13       30.29R
PERU/GRISSOM   SUNNY     50  31  47 S15       30.25R

$$
INZ028>050-171500-
CENTRAL INDIANA

CITY           SKY/WX    TMP DP  RH WIND       PRES   REMARKS
LAFAYETTE      SUNNY     50  28  42 SW12G18   30.23F
KOKOMO*        MOSUNNY   48  30  49 S15       30.26S
MUNCIE*        SUNNY     50  29  44 S12       30.28S
INDIANAPOLIS   PTSUNNY   49  30  48 S10       30.28R

$$
MIZ043>046-050>051-056>058-064>065-071>073-077>080-171500-
SOUTHWEST LOWER MICHIGAN

CITY           SKY/WX    TMP DP  RH WIND       PRES   REMARKS
BATTLE CREEK   SUNNY     45  24  43 S14       30.26R
BENTON HARBOR  CLOUDY    46  27  47 SE13      30.20F
COLDWATER*     SUNNY     44  25  46 SE13      30.27S
HILLSDALE*     SUNNY     43  24  45 S12       30.28S
HOLLAND        CLOUDY    47  28  47 SE13      30.21F
GRAND RAPIDS   PTSUNNY   44  26  49 SE12      30.24F
KALAMAZOO      MOSUNNY   45  25  45 S10       30.24F
STURGIS*       SUNNY     45  27  49 SE13      30.25S
THREE RIVERS*  FAIR      46  26  46 S10       30.25F

$$
OHZ001>008-015>018-024>025-171500-
NORTHWEST OHIO

CITY           SKY/WX    TMP DP  RH WIND       PRES   REMARKS
DEFIANCE       SUNNY     45  27  49 S10       30.31S
FINDLAY        SUNNY     47  29  49 S15       30.31F
TOLEDO EXPRESS SUNNY     44  25  47 S9G16     30.32S
TOLEDO METCALF SUNNY     47  28  47 S12       30.33F
LIMA           SUNNY     49  30  48 S15       30.31S

$$
&&



USA.gov is the U.S. government's official web portal to all federal, state and local government web resources and services.